$Date,$Time,DM0201B,DM0203B,DM0205B,DM0207B,DM0209B
10/04/98,00:00:01,346,180,-15,114,953
10/04/98,00:05:01,326,180,-16,114,953
10/04/98,00:10:01,296,180,-16,112,953
10/04/98,00:15:01,335,180,-16,122,953
10/04/98,00:20:01,293,180,-16,122,953
10/04/98,00:25:01,296,180,-15,130,953
10/04/98,00:30:01,335,180,-15,134,953
10/04/98,00:35:01,297,190,-16,140,953
10/04/98,00:40:01,341,180,-16,145,953
10/04/98,00:45:01,322,180,-16,145,953
10/04/98,00:50:01,333,180,-16,139,953
10/04/98,00:55:01,322,180,-16,143,953
10/04/98,01:00:01,319,180,-16,150,953
10/04/98,01:05:01,304,180,-16,156,953
10/04/98,01:10:01,303,180,-16,152,953
10/04/98,01:15:01,283,180,-16,152,953
10/04/98,01:20:01,268,180,-16,152,953
10/04/98,01:25:01,267,180,-15,160,953
10/04/98,01:30:01,252,180,-15,174,953
10/04/98,01:35:01,260,180,-15,172,953
10/04/98,01:40:01,237,180,-15,162,953
10/04/98,01:45:01,235,180,-16,133,953
10/04/98,01:50:01,232,180,-16,131,953
10/04/98,01:55:01,223,180,-15,131,953
10/04/98,02:00:01,226,175,-15,156,953
10/04/98,02:05:01,208,175,-15,180,953
10/04/98,02:10:01,271,175,-15,153,953
10/04/98,02:15:01,202,173,-15,165,953
10/04/98,02:20:01,285,173,-15,150,953
10/04/98,02:25:01,259,173,-14,245,953
10/04/98,02:30:01,296,173,-14,259,953
10/04/98,02:35:01,273,173,-13,268,953
10/04/98,02:40:01,233,173,-13,253,953
10/04/98,02:45:01,304,173,-12,251,953
10/04/98,02:50:01,323,173,-12,246,953
10/04/98,02:55:01,301,161,-12,238,953
10/04/98,03:00:01,364,168,-12,230,953
10/04/98,03:05:01,386,168,-12,222,953
10/04/98,03:10:01,354,168,-12,225,953
10/04/98,03:15:01,371,168,-13,220,953
10/04/98,03:20:01,386,168,-13,207,953
10/04/98,03:25:01,380,168,-13,205,953
10/04/98,03:30:01,358,168,-13,201,953
10/04/98,03:35:01,324,168,-12,201,953
10/04/98,03:40:01,355,168,-12,199,953
10/04/98,03:45:01,332,168,-12,198,953
10/04/98,03:50:01,322,168,-12,191,953
10/04/98,03:55:01,315,168,-12,149,953
10/04/98,04:00:01,271,168,-12,156,953
10/04/98,04:05:01,311,182,-12,136,953
10/04/98,04:10:01,289,171,-12,108,953
10/04/98,04:15:01,305,171,-12,87,953
10/04/98,04:20:01,382,161,-12,72,953
10/04/98,04:25:01,323,159,-12,70,953
10/04/98,04:30:01,324,162,-12,68,953
10/04/98,04:35:01,351,171,-12,66,953
10/04/98,04:40:01,372,169,-12,66,953
10/04/98,04:45:01,264,179,-13,61,953
10/04/98,04:50:01,511,174,-12,59,953
10/04/98,04:55:01,362,159,-13,57,953
10/04/98,05:00:01,382,169,-13,55,953
10/04/98,05:05:01,446,159,-13,53,953
10/04/98,05:10:01,341,158,-13,51,953
10/04/98,05:15:01,383,172,-13,51,953
10/04/98,05:20:01,386,162,-13,55,953
10/04/98,05:25:01,365,163,-13,51,953
10/04/98,05:30:01,471,163,-13,53,953
10/04/98,05:35:01,449,163,-13,51,953
10/04/98,05:40:01,361,162,-13,49,953
10/04/98,05:45:01,444,163,-14,45,953
10/04/98,05:50:01,383,163,-14,43,953
10/04/98,05:55:01,420,163,-14,43,953
10/04/98,06:00:01,251,160,-14,43,953
10/04/98,06:05:01,387,159,-14,39,953
10/04/98,06:10:01,380,172,-14,39,953
10/04/98,06:15:01,478,161,-14,37,953
10/04/98,06:20:01,532,163,-15,37,953
10/04/98,06:25:01,487,174,-15,37,953
10/04/98,06:30:01,446,167,-15,39,953
10/04/98,06:35:01,488,167,-16,45,953
10/04/98,06:40:01,401,167,-16,47,953
10/04/98,06:45:01,434,167,-16,49,953
10/04/98,06:50:01,408,167,-16,51,953
10/04/98,06:55:01,420,165,-16,49,953
10/04/98,07:00:01,420,175,-16,45,953
10/04/98,07:05:01,406,177,-16,40,953
10/04/98,07:10:01,429,174,-16,36,953
10/04/98,07:15:01,509,174,-16,32,953
10/04/98,07:20:01,454,172,-17,28,953
10/04/98,07:25:01,511,173,-17,24,953
10/04/98,07:30:01,526,173,-17,22,953
10/04/98,07:35:01,492,162,-17,20,953
10/04/98,07:40:01,427,162,-17,18,953
10/04/98,07:45:01,466,163,-17,18,953
10/04/98,07:50:01,514,164,-17,16,953
10/04/98,07:55:01,439,164,-17,14,953
10/04/98,08:00:01,436,164,-17,12,953
10/04/98,08:05:01,439,171,-17,10,953
10/04/98,08:10:01,515,171,-17,10,953
10/04/98,08:15:01,525,171,-17,8,953
10/04/98,08:20:01,460,170,-18,6,953
10/04/98,08:25:01,553,170,-18,6,953
10/04/98,08:30:01,532,170,-18,4,953
10/04/98,08:35:01,537,170,-18,4,953
10/04/98,08:40:01,538,170,-18,4,953
10/04/98,08:45:01,487,162,-18,4,953
10/04/98,08:50:01,510,162,-18,2,953
10/04/98,08:55:01,595,174,-18,2,953
10/04/98,09:00:01,511,173,-18,2,953
10/04/98,09:05:01,528,166,-18,0,953
10/04/98,09:10:01,544,166,-18,0,951
10/04/98,09:15:01,553,166,-18,0,951
10/04/98,09:20:01,546,166,-18,0,951
10/04/98,09:25:01,567,168,-17,0,951
10/04/98,09:30:01,546,168,-17,0,953
10/04/98,09:35:01,546,168,-17,0,953
10/04/98,09:40:01,548,170,-17,0,953
10/04/98,09:45:01,540,170,-17,0,951
10/04/98,09:50:01,532,170,-17,0,951
10/04/98,09:55:01,564,170,-17,0,951
10/04/98,10:00:01,568,170,-17,0,951
10/04/98,10:05:01,530,170,-17,0,951
10/04/98,10:10:01,579,172,-17,0,951
10/04/98,10:15:01,545,171,-17,0,953
10/04/98,10:20:01,536,171,-17,0,953
10/04/98,10:25:01,461,171,-17,0,953
10/04/98,10:30:01,511,171,-17,0,953
10/04/98,10:35:01,561,171,-17,0,953
10/04/98,10:40:01,523,171,-17,0,953
10/04/98,10:45:01,492,160,-17,0,953
10/04/98,10:50:01,443,171,-17,0,953
10/04/98,10:55:01,531,171,-17,0,953
10/04/98,11:00:01,556,171,-17,0,953
10/04/98,11:05:01,465,171,-17,0,953
10/04/98,11:10:01,556,171,-17,0,953
10/04/98,11:15:01,516,171,-17,0,953
10/04/98,11:20:01,459,171,-17,0,953
10/04/98,11:25:01,544,171,-17,0,953
10/04/98,11:30:01,465,171,-17,0,953
10/04/98,11:35:01,429,171,-17,0,953
10/04/98,11:40:01,486,174,-17,0,953
10/04/98,11:45:01,499,164,-17,0,953
10/04/98,11:50:01,527,176,-17,0,953
10/04/98,11:55:01,454,176,-17,0,953
10/04/98,12:00:01,412,175,-17,0,953
10/04/98,12:05:01,541,164,-17,0,953
10/04/98,12:10:01,493,168,-17,0,953
10/04/98,12:15:01,452,168,-17,0,953
10/04/98,12:20:01,474,168,-17,0,953
10/04/98,12:25:01,502,168,-17,0,953
10/04/98,12:30:01,522,177,-17,0,953
10/04/98,12:35:01,437,177,-17,0,953
10/04/98,12:40:01,421,177,-17,0,953
10/04/98,12:45:01,377,177,-17,0,953
10/04/98,12:50:01,405,177,-17,0,953
10/04/98,12:55:01,511,177,-17,0,953
10/04/98,13:00:01,410,177,-17,0,953
10/04/98,13:05:01,546,174,-17,0,953
10/04/98,13:10:01,431,178,-16,0,953
10/04/98,13:15:01,383,178,-17,0,953
10/04/98,13:20:01,450,178,-17,0,953
10/04/98,13:25:01,423,178,-17,0,953
10/04/98,13:30:01,501,178,-17,0,953
10/04/98,13:35:01,415,178,-17,0,953
10/04/98,13:40:01,430,178,-17,0,953
10/04/98,13:45:01,425,178,-17,0,953
10/04/98,13:50:01,432,178,-17,0,953
10/04/98,13:55:01,470,178,-17,0,953
10/04/98,14:00:01,448,177,-17,0,953
10/04/98,14:05:01,383,177,-17,0,953
10/04/98,14:10:01,393,177,-17,0,953
10/04/98,14:15:01,369,165,-17,0,953
10/04/98,14:20:01,403,175,-17,0,953
10/04/98,14:25:01,384,175,-17,0,953
10/04/98,14:30:01,337,163,-17,0,953
10/04/98,14:35:01,367,163,-17,0,953
10/04/98,14:40:01,389,172,-17,0,953
10/04/98,14:45:01,344,168,-17,0,953
10/04/98,14:50:01,324,168,-17,0,953
10/04/98,14:55:01,320,166,-17,0,955
10/04/98,15:00:01,310,166,-16,0,955
10/04/98,15:05:01,326,166,-17,0,955
10/04/98,15:10:01,381,166,-16,0,955
10/04/98,15:15:01,315,166,-16,0,955
10/04/98,15:20:01,279,166,-16,0,955
10/04/98,15:25:01,279,166,-16,0,955
10/04/98,15:30:01,307,166,-16,0,955
10/04/98,15:35:01,313,166,-16,0,955
10/04/98,15:40:01,302,163,-16,0,955
10/04/98,15:45:01,321,163,-16,0,955
10/04/98,15:50:01,252,163,-16,0,955
10/04/98,15:55:01,298,163,-16,0,955
10/04/98,16:00:01,318,165,-16,0,955
10/04/98,16:05:01,319,165,-16,0,955
10/04/98,16:10:01,269,155,-16,0,955
10/04/98,16:15:01,281,157,-16,0,955
10/04/98,16:20:01,275,157,-16,0,955
10/04/98,16:25:01,249,156,-16,0,955
10/04/98,16:30:01,257,156,-16,0,955
10/04/98,16:35:01,240,156,-17,0,955
10/04/98,16:40:01,276,159,-16,0,955
10/04/98,16:45:01,336,171,-16,0,955
10/04/98,16:50:01,286,162,-16,2,955
10/04/98,16:55:01,258,162,-16,2,955
10/04/98,17:00:01,270,174,-16,2,955
10/04/98,17:05:01,226,188,-17,4,955
10/04/98,17:10:01,251,172,-17,6,955
10/04/98,17:15:01,233,173,-16,10,955
10/04/98,17:20:01,252,173,-17,12,955
10/04/98,17:25:01,234,173,-16,14,955
10/04/98,17:30:01,202,173,-17,14,955
10/04/98,17:35:01,192,189,-17,14,955
10/04/98,17:40:01,230,185,-17,14,955
10/04/98,17:45:01,206,186,-17,10,955
10/04/98,17:50:01,228,189,-17,10,955
10/04/98,17:55:01,260,178,-17,10,955
10/04/98,18:00:01,248,178,-17,12,955
10/04/98,18:05:01,255,178,-17,12,955
10/04/98,18:10:01,263,193,-17,14,955
10/04/98,18:15:01,285,183,-17,14,955
10/04/98,18:20:01,235,186,-17,18,955
10/04/98,18:25:01,259,174,-17,20,955
10/04/98,18:30:01,335,174,-17,20,955
10/04/98,18:35:01,306,174,-16,24,955
10/04/98,18:40:01,328,174,-16,26,955
10/04/98,18:45:01,292,174,-16,30,955
10/04/98,18:50:01,282,174,-16,32,955
10/04/98,18:55:01,275,174,-16,32,955
10/04/98,19:00:01,288,174,-16,32,955
10/04/98,19:05:01,253,174,-16,32,955
10/04/98,19:10:01,255,174,-16,34,955
10/04/98,19:15:01,285,174,-16,36,955
10/04/98,19:20:01,263,174,-16,36,955
10/04/98,19:25:01,264,174,-16,38,955
10/04/98,19:30:01,247,175,-16,40,955
10/04/98,19:35:01,169,187,-16,42,955
10/04/98,19:40:01,167,187,-17,44,955
10/04/98,19:45:01,207,176,-16,48,955
10/04/98,19:50:01,213,166,-16,50,955
10/04/98,19:55:01,196,163,-16,54,955
10/04/98,20:00:01,182,174,-16,54,955
10/04/98,20:05:01,171,174,-16,52,955
10/04/98,20:10:01,139,174,-16,52,955
10/04/98,20:15:01,148,174,-16,54,955
10/04/98,20:20:01,156,198,-16,56,955
10/04/98,20:25:01,101,198,-16,60,955
10/04/98,20:30:01,104,201,-16,62,955
10/04/98,20:35:01,97,208,-16,64,955
10/04/98,20:40:01,73,210,-16,66,955
10/04/98,20:45:01,68,217,-16,68,955
10/04/98,20:50:01,68,226,-16,72,955
10/04/98,20:55:01,82,230,-16,72,955
10/04/98,21:00:01,70,222,-16,72,955
10/04/98,21:05:01,54,237,-16,74,955
10/04/98,21:10:01,54,245,-16,78,955
10/04/98,21:15:01,54,245,-16,82,955
10/04/98,21:20:01,89,263,-16,84,955
10/04/98,21:25:01,105,261,-16,84,955
10/04/98,21:30:01,94,263,-16,86,955
10/04/98,21:35:01,84,257,-16,86,955
10/04/98,21:40:01,77,250,-16,88,955
10/04/98,21:45:01,112,257,-16,90,955
10/04/98,21:50:01,113,254,-16,94,955
10/04/98,21:55:01,74,246,-16,96,955
10/04/98,22:00:01,105,258,-16,98,955
10/04/98,22:05:01,114,265,-16,98,955
10/04/98,22:10:01,117,271,-16,102,955
10/04/98,22:15:01,131,257,-16,102,955
10/04/98,22:20:01,122,268,-16,104,955
10/04/98,22:25:01,88,262,-16,104,955
10/04/98,22:30:01,84,262,-16,106,955
10/04/98,22:35:01,94,270,-16,110,955
10/04/98,22:40:01,45,267,-16,108,955
10/04/98,22:45:01,46,258,-16,110,955
10/04/98,22:50:01,167,282,-16,106,955
10/04/98,22:55:01,110,286,-16,100,955
10/04/98,23:00:01,72,287,-16,98,955
10/04/98,23:05:01,127,282,-16,96,955
10/04/98,23:10:01,58,267,-16,98,955
10/04/98,23:15:01,74,270,-16,102,955
10/04/98,23:20:01,98,283,-16,104,955
10/04/98,23:25:01,62,273,-16,110,955
10/04/98,23:30:01,72,263,-16,114,955
10/04/98,23:35:01,15,252,-16,108,955
10/04/98,23:40:01,64,287,-16,102,955
10/04/98,23:45:01,26,240,-16,90,955
10/04/98,23:50:01,39,216,-16,100,955
10/04/98,23:55:01,87,221,-16,117,955
10/05/98,00:00:01,164,179,-16,148,955
